Location: *
(46.1833°N, 22.7667°E)
Time: 13:10:37
(UTC+00:00)

NOSS 3-4 (C) - Pass Details

Date: 17 September 2019
Orbit: 913 x 1299 km, 63.4° (Epoch: 17 October)

Event Time Altitude Azimuth Distance (km) Brightness Sun altitude
Rises 16:54:41 0° 320° (NW) 3,779 7.4 -3.8°
Reaches altitude 10° 16:57:24 10° 328° (NNW) 2,879 6.6 -4.3°
Maximum altitude 17:03:51 41° 38° (NE) 1,579 4.4 -5.4°
Drops below altitude 10° 17:10:51 10° 107° (ESE) 3,135 5.5 -6.6°
Enters shadow 17:11:39 - 109° (ESE) 3,393 5.7 -6.7°
